Time,TemperatureF,DewpointF,PressureIn,WindDirection,WindDirectionDegrees,WindSpeedMPH,WindSpeedGustMPH,Humidity,HourlyPrecipIn,Conditions,Clouds,dailyrainin,SoftwareType,DateUTC
2013-03-21 00:02:00,71.0,65.0,30.04,SE,134,0.0,1.0,80,0.00,,,0.00,,2013-03-21 10:02:00,
2013-03-21 00:12:00,71.0,65.0,30.04,SE,134,0.0,1.0,80,0.00,,,0.00,,2013-03-21 10:12:00,
2013-03-21 00:22:00,71.0,65.0,30.03,SE,134,0.0,0.0,81,0.00,,,0.00,,2013-03-21 10:22:00,
2013-03-21 00:32:00,71.0,65.0,30.03,SE,134,0.0,0.0,80,0.00,,,0.00,,2013-03-21 10:32:00,
2013-03-21 00:42:00,71.0,65.0,30.03,SE,134,0.0,0.0,80,0.00,,,0.00,,2013-03-21 10:42:00,
2013-03-21 00:53:00,71.0,65.0,30.03,SE,134,0.0,2.0,81,0.00,,,0.00,,2013-03-21 10:53:00,
2013-03-21 01:02:00,71.0,65.0,30.02,SE,134,0.0,0.0,81,0.00,,,0.00,,2013-03-21 11:02:00,
2013-03-21 01:12:00,71.0,65.0,30.02,SE,134,0.0,0.0,81,0.00,,,0.00,,2013-03-21 11:12:00,
2013-03-21 01:22:00,71.0,65.0,30.03,SE,134,3.0,4.0,81,0.00,,,0.00,,2013-03-21 11:22:00,
2013-03-21 01:32:00,71.0,65.0,30.02,SE,134,2.0,3.0,81,0.00,,,0.00,,2013-03-21 11:32:00,
2013-03-21 01:42:00,71.0,65.0,30.02,SE,134,2.0,3.0,81,0.00,,,0.00,,2013-03-21 11:42:00,
2013-03-21 01:52:00,71.0,65.0,30.01,SE,134,0.0,0.0,81,0.00,,,0.00,,2013-03-21 11:52:00,
2013-03-21 02:01:00,71.0,65.0,30.01,SE,134,0.0,0.0,81,0.00,,,0.00,,2013-03-21 12:01:00,
2013-03-21 02:11:00,71.0,65.0,30.01,SE,134,0.0,0.0,81,0.00,,,0.00,,2013-03-21 12:11:00,
2013-03-21 02:21:00,71.0,65.0,30.00,SE,134,0.0,0.0,82,0.00,,,0.00,,2013-03-21 12:21:00,
2013-03-21 02:32:00,71.0,65.0,30.00,SE,134,0.0,0.0,82,0.00,,,0.00,,2013-03-21 12:32:00,
2013-03-21 02:41:00,71.0,65.0,30.00,SE,134,0.0,0.0,82,0.00,,,0.00,,2013-03-21 12:41:00,
2013-03-21 02:52:00,70.0,64.0,29.99,SE,134,4.0,5.0,82,0.00,,,0.00,,2013-03-21 12:52:00,
2013-03-21 03:02:00,71.0,65.0,29.99,SE,134,0.0,4.0,81,0.00,,,0.00,,2013-03-21 13:02:00,
2013-03-21 03:11:00,71.0,65.0,29.99,SE,134,0.0,4.0,81,0.00,,,0.00,,2013-03-21 13:11:00,
2013-03-21 03:21:00,71.0,65.0,29.99,SE,134,0.0,0.0,81,0.00,,,0.00,,2013-03-21 13:21:00,
2013-03-21 03:31:00,71.0,65.0,29.98,SE,134,0.0,1.0,80,0.00,,,0.00,,2013-03-21 13:31:00,
2013-03-21 03:42:00,71.0,65.0,29.98,SE,134,0.0,1.0,80,0.00,,,0.00,,2013-03-21 13:42:00,
2013-03-21 03:52:00,71.0,65.0,29.98,SE,134,1.0,3.0,80,0.00,,,0.00,,2013-03-21 13:52:00,
2013-03-21 04:01:00,71.0,65.0,29.99,SE,134,0.0,0.0,80,0.00,,,0.00,,2013-03-21 14:01:00,
2013-03-21 04:11:00,71.0,65.0,29.99,SE,134,0.0,0.0,80,0.00,,,0.00,,2013-03-21 14:11:00,
2013-03-21 04:21:00,71.0,65.0,29.99,SE,134,0.0,0.0,80,0.00,,,0.00,,2013-03-21 14:21:00,
2013-03-21 04:32:00,71.0,65.0,29.99,SE,134,0.0,2.0,80,0.00,,,0.00,,2013-03-21 14:32:00,
2013-03-21 04:42:00,71.0,65.0,29.99,SE,134,0.0,2.0,80,0.00,,,0.00,,2013-03-21 14:42:00,
2013-03-21 04:52:00,71.0,65.0,29.99,SE,134,0.0,1.0,80,0.00,,,0.00,,2013-03-21 14:52:00,
2013-03-21 05:02:00,71.0,65.0,30.00,SE,134,0.0,1.0,80,0.00,,,0.00,,2013-03-21 15:02:00,
2013-03-21 05:11:00,71.0,65.0,30.00,SE,134,0.0,2.0,80,0.00,,,0.00,,2013-03-21 15:11:00,
2013-03-21 05:21:00,71.0,65.0,30.00,SE,134,0.0,2.0,80,0.00,,,0.00,,2013-03-21 15:21:00,
2013-03-21 05:32:00,71.0,65.0,30.01,SE,134,0.0,4.0,81,0.00,,,0.00,,2013-03-21 15:32:00,
2013-03-21 05:42:00,71.0,65.0,30.01,SE,134,0.0,4.0,81,0.00,,,0.00,,2013-03-21 15:42:00,
2013-03-21 05:53:00,71.0,65.0,30.01,SE,134,0.0,4.0,81,0.00,,,0.00,,2013-03-21 15:53:00,
2013-03-21 06:03:00,71.0,65.0,30.00,SE,134,0.0,3.0,82,0.00,,,0.00,,2013-03-21 16:03:00,
2013-03-21 06:12:00,71.0,65.0,30.00,SE,134,0.0,3.0,82,0.00,,,0.00,,2013-03-21 16:12:00,
2013-03-21 06:22:00,71.0,65.0,30.01,SE,134,0.0,3.0,82,0.00,,,0.00,,2013-03-21 16:22:00,
2013-03-21 06:32:00,71.0,66.0,30.01,SE,132,1.0,4.0,83,0.00,,,0.00,,2013-03-21 16:32:00,
2013-03-21 06:53:00,71.0,66.0,30.02,SE,132,0.0,0.0,83,0.00,,,0.00,,2013-03-21 16:53:00,
2013-03-21 07:01:00,71.0,66.0,30.02,SSE,151,0.0,3.0,83,0.00,,,0.00,,2013-03-21 17:01:00,
2013-03-21 07:11:00,71.0,66.0,30.02,SSE,151,0.0,3.0,83,0.00,,,0.00,,2013-03-21 17:11:00,
2013-03-21 07:22:00,70.0,65.0,30.03,SSE,151,0.0,0.0,84,0.00,,,0.00,,2013-03-21 17:22:00,
2013-03-21 07:32:00,70.0,65.0,30.03,SSE,151,0.0,1.0,84,0.00,,,0.00,,2013-03-21 17:32:00,
2013-03-21 07:42:00,70.0,65.0,30.03,SSE,151,0.0,1.0,84,0.00,,,0.00,,2013-03-21 17:42:00,
2013-03-21 07:53:00,71.0,66.0,30.04,SSE,151,1.0,1.0,85,0.00,,,0.00,,2013-03-21 17:53:00,
2013-03-21 08:01:00,71.0,66.0,30.04,SSE,151,0.0,0.0,85,0.00,,,0.00,,2013-03-21 18:01:00,
2013-03-21 08:11:00,71.0,66.0,30.04,SSE,151,0.0,0.0,85,0.00,,,0.00,,2013-03-21 18:11:00,
2013-03-21 08:21:00,72.0,67.0,30.04,SSE,151,0.0,0.0,85,0.00,,,0.00,,2013-03-21 18:21:00,
2013-03-21 08:32:00,72.0,67.0,30.04,SSE,151,1.0,3.0,85,0.00,,,0.00,,2013-03-21 18:32:00,
2013-03-21 08:42:00,72.0,67.0,30.04,SSE,151,0.0,0.0,85,0.00,,,0.00,,2013-03-21 18:42:00,
2013-03-21 08:52:00,72.0,67.0,30.04,SSE,151,0.0,0.0,85,0.00,,,0.00,,2013-03-21 18:52:00,
2013-03-21 09:01:00,73.0,68.0,30.05,SSE,151,0.0,3.0,84,0.00,,,0.00,,2013-03-21 19:01:00,
2013-03-21 09:11:00,73.0,68.0,30.05,SSE,151,0.0,3.0,84,0.00,,,0.00,,2013-03-21 19:11:00,
2013-03-21 09:21:00,74.0,68.0,30.05,SSE,154,0.0,5.0,81,0.00,,,0.00,,2013-03-21 19:21:00,
2013-03-21 09:31:00,75.0,68.0,30.06,SE,144,0.0,4.0,79,0.00,,,0.00,,2013-03-21 19:31:00,
2013-03-21 09:41:00,75.0,68.0,30.06,SE,144,0.0,4.0,79,0.00,,,0.00,,2013-03-21 19:41:00,
2013-03-21 09:52:00,76.0,68.0,30.06,SE,144,0.0,5.0,77,0.00,,,0.00,,2013-03-21 19:52:00,
2013-03-21 10:02:00,77.0,68.0,30.06,SE,145,0.0,7.0,75,0.00,,,0.00,,2013-03-21 20:02:00,
2013-03-21 10:11:00,77.0,68.0,30.06,SE,145,0.0,7.0,75,0.00,,,0.00,,2013-03-21 20:11:00,
2013-03-21 10:22:00,77.0,68.0,30.06,SSE,148,1.0,10.0,75,0.00,,,0.00,,2013-03-21 20:22:00,
2013-03-21 10:32:00,78.0,69.0,30.06,SE,141,0.0,7.0,74,0.00,,,0.00,,2013-03-21 20:32:00,
2013-03-21 10:41:00,78.0,69.0,30.06,SE,141,0.0,7.0,74,0.00,,,0.00,,2013-03-21 20:41:00,
2013-03-21 10:53:00,78.0,69.0,30.05,SE,126,5.0,9.0,74,0.00,,,0.00,,2013-03-21 20:53:00,
2013-03-21 11:01:00,79.0,70.0,30.04,SE,131,2.0,9.0,73,0.00,,,0.00,,2013-03-21 21:01:00,
2013-03-21 11:11:00,79.0,70.0,30.04,SE,131,2.0,9.0,73,0.00,,,0.00,,2013-03-21 21:11:00,
2013-03-21 11:21:00,79.0,70.0,30.04,SE,141,4.0,5.0,73,0.00,,,0.00,,2013-03-21 21:21:00,
2013-03-21 11:32:00,79.0,69.0,30.04,SE,136,0.0,6.0,71,0.00,,,0.00,,2013-03-21 21:32:00,
2013-03-21 11:42:00,79.0,69.0,30.04,SE,136,0.0,6.0,71,0.00,,,0.00,,2013-03-21 21:42:00,
2013-03-21 11:53:00,80.0,70.0,30.03,ESE,107,4.0,10.0,72,0.00,,,0.00,,2013-03-21 21:53:00,
2013-03-21 12:02:00,80.0,69.0,30.03,SSE,150,0.0,9.0,70,0.00,,,0.00,,2013-03-21 22:02:00,
2013-03-21 12:12:00,80.0,69.0,30.03,SSE,150,0.0,9.0,70,0.00,,,0.00,,2013-03-21 22:12:00,
2013-03-21 12:22:00,81.0,70.0,30.01,SSE,150,5.0,11.0,69,0.00,,,0.00,,2013-03-21 22:22:00,
2013-03-21 12:33:00,80.0,69.0,30.01,SW,223,2.0,7.0,69,0.00,,,0.00,,2013-03-21 22:33:00,
2013-03-21 12:42:00,80.0,69.0,30.01,SW,223,2.0,7.0,69,0.00,,,0.00,,2013-03-21 22:42:00,
2013-03-21 12:52:00,79.0,69.0,30.01,SW,232,4.0,9.0,71,0.00,,,0.00,,2013-03-21 22:52:00,
2013-03-21 13:01:00,78.0,69.0,30.01,West,264,7.0,9.0,73,0.00,,,0.00,,2013-03-21 23:01:00,
2013-03-21 13:11:00,78.0,69.0,30.01,West,264,7.0,9.0,73,0.00,,,0.00,,2013-03-21 23:11:00,
2013-03-21 13:21:00,78.0,69.0,30.01,SW,234,6.0,8.0,73,0.00,,,0.00,,2013-03-21 23:21:00,
2013-03-21 13:32:00,79.0,69.0,30.00,WSW,244,6.0,10.0,71,0.00,,,0.00,,2013-03-21 23:32:00,
2013-03-21 13:42:00,79.0,69.0,30.00,WSW,244,6.0,10.0,71,0.00,,,0.00,,2013-03-21 23:42:00,
2013-03-21 13:52:00,80.0,70.0,29.99,WSW,245,6.0,9.0,71,0.00,,,0.00,,2013-03-21 23:52:00,
2013-03-21 14:01:00,80.0,69.0,29.98,WSW,247,5.0,8.0,69,0.00,,,0.00,,2013-03-22 00:01:00,
2013-03-21 14:11:00,80.0,69.0,29.98,WSW,247,5.0,8.0,69,0.00,,,0.00,,2013-03-22 00:11:00,
2013-03-21 14:22:00,80.0,69.0,29.98,WSW,248,8.0,9.0,70,0.00,,,0.00,,2013-03-22 00:22:00,
2013-03-21 14:31:00,80.0,69.0,29.98,WSW,243,7.0,13.0,69,0.00,,,0.00,,2013-03-22 00:31:00,
2013-03-21 14:41:00,80.0,69.0,29.98,WSW,243,7.0,13.0,69,0.00,,,0.00,,2013-03-22 00:41:00,
2013-03-21 14:52:00,79.0,68.0,29.97,WSW,238,8.0,12.0,69,0.00,,,0.00,,2013-03-22 00:52:00,
2013-03-21 15:01:00,80.0,68.0,29.96,WSW,242,6.0,11.0,67,0.00,,,0.00,,2013-03-22 01:01:00,
2013-03-21 15:11:00,80.0,68.0,29.96,WSW,242,6.0,11.0,67,0.00,,,0.00,,2013-03-22 01:11:00,
2013-03-21 15:21:00,80.0,67.0,29.96,West,262,10.0,14.0,65,0.00,,,0.00,,2013-03-22 01:21:00,
2013-03-21 15:31:00,79.0,68.0,29.97,WSW,252,6.0,13.0,69,0.00,,,0.00,,2013-03-22 01:31:00,
2013-03-21 15:42:00,79.0,68.0,29.97,WSW,252,6.0,13.0,69,0.00,,,0.00,,2013-03-22 01:42:00,
2013-03-21 15:53:00,78.0,69.0,29.97,WSW,248,13.0,14.0,73,0.00,,,0.00,,2013-03-22 01:53:00,
2013-03-21 16:02:00,78.0,69.0,29.96,West,267,9.0,13.0,73,0.00,,,0.00,,2013-03-22 02:02:00,
2013-03-21 16:11:00,78.0,69.0,29.96,West,267,9.0,13.0,73,0.00,,,0.00,,2013-03-22 02:11:00,
2013-03-21 16:21:00,77.0,68.0,29.97,WSW,249,11.0,18.0,74,0.00,,,0.00,,2013-03-22 02:21:00,
2013-03-21 16:31:00,77.0,68.0,29.96,SW,236,11.0,13.0,75,0.00,,,0.00,,2013-03-22 02:31:00,
2013-03-21 16:42:00,77.0,68.0,29.96,SW,236,11.0,13.0,75,0.00,,,0.00,,2013-03-22 02:42:00,
2013-03-21 16:52:00,77.0,69.0,29.97,WSW,240,9.0,11.0,76,0.00,,,0.00,,2013-03-22 02:52:00,
2013-03-21 17:01:00,77.0,70.0,29.97,SW,234,8.0,11.0,78,0.00,,,0.00,,2013-03-22 03:01:00,
2013-03-21 17:21:00,76.0,69.0,29.97,SW,236,5.0,12.0,79,0.00,,,0.00,,2013-03-22 03:21:00,
2013-03-21 17:32:00,76.0,69.0,29.97,West,259,6.0,13.0,79,0.00,,,0.00,,2013-03-22 03:32:00,
2013-03-21 17:42:00,76.0,69.0,29.97,West,259,6.0,13.0,79,0.00,,,0.00,,2013-03-22 03:42:00,
2013-03-21 17:53:00,76.0,69.0,29.98,WSW,255,9.0,12.0,80,0.00,,,0.00,,2013-03-22 03:53:00,
2013-03-21 18:02:00,75.0,69.0,29.98,WSW,240,6.0,11.0,81,0.00,,,0.00,,2013-03-22 04:02:00,
2013-03-21 18:12:00,75.0,69.0,29.98,WSW,240,6.0,11.0,81,0.00,,,0.00,,2013-03-22 04:12:00,
2013-03-21 18:22:00,75.0,69.0,29.98,West,275,10.0,13.0,82,0.00,,,0.00,,2013-03-22 04:22:00,
2013-03-21 18:32:00,75.0,69.0,29.98,West,267,9.0,13.0,83,0.00,,,0.00,,2013-03-22 04:32:00,
2013-03-21 18:42:00,75.0,69.0,29.98,West,267,9.0,13.0,83,0.00,,,0.00,,2013-03-22 04:42:00,
2013-03-21 18:52:00,75.0,70.0,29.98,West,262,6.0,11.0,84,0.00,,,0.00,,2013-03-22 04:52:00,
2013-03-21 19:01:00,74.0,69.0,29.99,West,263,4.0,9.0,84,0.00,,,0.00,,2013-03-22 05:01:00,
2013-03-21 19:12:00,74.0,69.0,29.99,West,263,4.0,9.0,84,0.00,,,0.00,,2013-03-22 05:12:00,
2013-03-21 19:22:00,74.0,69.0,29.99,West,267,10.0,13.0,85,0.00,,,0.00,,2013-03-22 05:22:00,
2013-03-21 19:32:00,74.0,69.0,30.00,West,275,8.0,11.0,85,0.00,,,0.00,,2013-03-22 05:32:00,
2013-03-21 19:42:00,74.0,69.0,30.00,West,275,8.0,11.0,85,0.00,,,0.00,,2013-03-22 05:42:00,
2013-03-21 19:52:00,74.0,69.0,30.01,West,261,6.0,11.0,84,0.00,,,0.00,,2013-03-22 05:52:00,
2013-03-21 20:01:00,74.0,69.0,30.01,WSW,246,6.0,10.0,84,0.00,,,0.00,,2013-03-22 06:01:00,
2013-03-21 20:12:00,74.0,69.0,30.01,WSW,246,6.0,10.0,84,0.00,,,0.00,,2013-03-22 06:12:00,
2013-03-21 20:21:00,74.0,68.0,30.01,West,264,4.0,10.0,83,0.00,,,0.00,,2013-03-22 06:21:00,
2013-03-21 20:31:00,74.0,68.0,30.02,West,261,7.0,9.0,82,0.00,,,0.00,,2013-03-22 06:31:00,
2013-03-21 20:41:00,74.0,68.0,30.02,West,261,7.0,9.0,82,0.00,,,0.00,,2013-03-22 06:41:00,
2013-03-21 20:52:00,74.0,68.0,30.02,West,263,4.0,8.0,82,0.00,,,0.00,,2013-03-22 06:52:00,
2013-03-21 21:01:00,74.0,68.0,30.03,WSW,250,7.0,10.0,82,0.00,,,0.00,,2013-03-22 07:01:00,
2013-03-21 21:11:00,74.0,68.0,30.03,WSW,250,7.0,10.0,82,0.00,,,0.00,,2013-03-22 07:11:00,
2013-03-21 21:21:00,74.0,68.0,30.04,WSW,253,5.0,11.0,82,0.00,,,0.00,,2013-03-22 07:21:00,
2013-03-21 21:31:00,74.0,68.0,30.04,West,263,9.0,10.0,82,0.00,,,0.00,,2013-03-22 07:31:00,
2013-03-21 21:41:00,74.0,68.0,30.04,West,263,9.0,10.0,82,0.00,,,0.00,,2013-03-22 07:41:00,
2013-03-21 21:52:00,74.0,68.0,30.05,WSW,251,5.0,10.0,82,0.00,,,0.00,,2013-03-22 07:52:00,
2013-03-21 22:02:00,74.0,68.0,30.04,West,259,6.0,8.0,83,0.00,,,0.00,,2013-03-22 08:02:00,
2013-03-21 22:12:00,74.0,68.0,30.04,West,259,6.0,8.0,83,0.00,,,0.00,,2013-03-22 08:12:00,
2013-03-21 22:21:00,74.0,68.0,30.05,West,270,9.0,12.0,83,0.00,,,0.00,,2013-03-22 08:21:00,
2013-03-21 22:31:00,74.0,68.0,30.05,West,264,7.0,11.0,83,0.00,,,0.00,,2013-03-22 08:31:00,
2013-03-21 22:41:00,74.0,68.0,30.05,West,264,7.0,11.0,83,0.00,,,0.00,,2013-03-22 08:41:00,
2013-03-21 22:52:00,74.0,68.0,30.05,WSW,251,3.0,13.0,83,0.00,,,0.00,,2013-03-22 08:52:00,
2013-03-21 23:01:00,74.0,69.0,30.05,West,263,7.0,14.0,84,0.00,,,0.00,,2013-03-22 09:01:00,
2013-03-21 23:11:00,74.0,69.0,30.05,West,263,7.0,14.0,84,0.00,,,0.00,,2013-03-22 09:11:00,
2013-03-21 23:22:00,74.0,69.0,30.04,WSW,254,6.0,10.0,84,0.00,,,0.00,,2013-03-22 09:22:00,
2013-03-21 23:32:00,74.0,69.0,30.03,WSW,248,7.0,10.0,84,0.00,,,0.00,,2013-03-22 09:32:00,
2013-03-21 23:42:00,74.0,69.0,30.03,WSW,248,7.0,10.0,84,0.00,,,0.00,,2013-03-22 09:42:00,
2013-03-21 23:53:00,74.0,69.0,30.03,West,265,12.0,14.0,85,0.00,,,0.00,,2013-03-22 09:53:00,